Regional Weather Roundup
Issued by NWS

Home | Current Version | Previous Version | Text Only | Print | Product List | Glossary On
Versions: 1 2 3 4 5 6 7 8 9 10 11 12 13 14 15 16 17 18 19 20 21 22 23 24 25 26 27 28 29 30 31 32 33 34 35 36 37 38 39 40 41 42 43 44 45 46 47 48 49 50
000
ASUS44 KBMX 052210
RWRAL

ALABAMA REGIONAL WEATHER ROUNDUP
NATIONAL WEATHER SERVICE BIRMINGHAM AL
500 PM CDT SUN JUL 05 2015

NOTE: "FAIR" INDICATES FEW OR NO CLOUDS BELOW 12,000 FEET
WITH NO SIGNIFICANT WEATHER AND/OR OBSTRUCTIONS TO VISIBILITY.

THE REMARK "TC" DENOTES TEMPERATURE IN DEGREES CELSIUS.

ALZ001>011-014-016>018-020-052300-
NORTH ALABAMA

CITY           SKY/WX    TMP DP  RH WIND       PRES   REMARKS
MUSCLE SHOALS  PTSUNNY   83  67  58 SW7       30.08F
HUNTSVILLE     PTSUNNY   83  68  60 W7        30.08S
DECATUR        PTSUNNY   83  69  62 W8        30.08F
HALEYVILLE     FAIR      81  70  69 CALM      30.12S
GADSDEN        MOSUNNY   91  64  40 SW6       30.08F HX  93
$$

ALZ012-013-022-023-030>036-040>044-052300-
WEST CENTRAL ALABAMA

CITY           SKY/WX    TMP DP  RH WIND       PRES   REMARKS
TUSCALOOSA     CLOUDY    78  71  79 SW8       30.09F
$$

ALZ015-024>027-033>036-040>044-052300-
CENTRAL ALABAMA

CITY           SKY/WX    TMP DP  RH WIND       PRES   REMARKS
BIRMINGHAM     CLOUDY    82  70  66 SW9       30.11F
MONTGOMERY     CLOUDY    79  70  74 SW9       30.11F
SHELBY CO ARPT PTSUNNY   81  70  69 W3        30.10S
MAXWELL AFB    CLOUDY    79  74  85 SW6       30.10F
GREENVILLE     PTSUNNY   74  69  85 W9        30.13F
$$

ALZ019-021-028-029-037-038-045>048-052300-
EAST CENTRAL ALABAMA

CITY           SKY/WX    TMP DP  RH WIND       PRES   REMARKS
ANNISTON       MOSUNNY   84  68  58 SW7       30.09F
ALEXANDER CITY CLOUDY    77  69  76 SW6       30.12S
AUBURN         MOSUNNY   81  68  65 SW10      30.13F
$$

ALZ051>064-052300-
SOUTHWEST ALABAMA

CITY           SKY/WX    TMP DP  RH WIND       PRES   REMARKS
MOBILE         RAIN      68  68 100 SE5       30.17F FOG
BROOKLEY FIELD LGT RAIN  72  68  87 N6        30.19F
EVERGREEN      LGT RAIN  71  69  93 SW7       30.14F
$$

ALZ049-050-065>069-052300-
SOUTHEAST ALABAMA

CITY           SKY/WX    TMP DP  RH WIND       PRES   REMARKS
DOTHAN         PTSUNNY   76  70  82 W8        30.16S
OZARK          CLOUDY    78  71  78 W8        30.13F
TROY           PTSUNNY   81  70  69 W9G28     30.14S
EUFAULA        FAIR      82  71  69 SW6       30.10F
$$


USA.gov is the U.S. government's official web portal to all federal, state and local government web resources and services.